Location: Poughquag
(41.6090°N, 73.6820°W)
Time: 02:31:42
(UTC-04:00)

Vanguard 2 Rocket - Pass Details

Date: 07 June 2020
Orbit: 556 x 3324 km, 32.9° (Epoch: 06 July)

Event Time Altitude Azimuth Distance (km) Brightness Sun altitude
Rises 15:22:53 0° 252° (WSW) 3,241 10.3 53.7°
Reaches altitude 10° 15:24:59 10° 245° (WSW) 2,517 10.0 53.4°
Maximum altitude 15:30:39 45° 174° (S) 1,595 8.9 52.3°
Drops below altitude 10° 15:40:15 10° 107° (ESE) 4,225 10.1 50.6°
Sets 15:44:52 0° 102° (ESE) 5,704 10.6 49.8°
